FW6908 Weather Reports


time (UTC)temp
C
wind
direction
speed
KPH
gust
KPH
rain 1hr
cm
rain 24hr
cm
rain mn
cm
humidity
%
barometer
mb
20260906165557 32 56 11.3 20.9 0.00 0.00 0.00 35 1018.5
20260906165054 32 78 11.3 22.5 0.00 0.00 0.00 34 1018.4
20260906164558 32 88 14.5 20.9 0.00 0.00 0.00 33 1018.3
20260906164056 32 101 12.9 19.3 0.00 0.00 0.00 33 1018.4
20260906163554 33 58 11.3 24.1 0.00 0.00 0.00 33 1018.4
20260906163054 33 109 14.5 22.5 0.00 0.00 0.00 33 1018.3
20260906162554 33 88 6.4 17.7 0.00 0.00 0.00 33 1018.4
20260906162053 33 115 6.4 17.7 0.00 0.00 0.00 33 1018.4
20260906161553 33 88 9.7 14.5 0.00 0.00 0.00 33 1018.4
20260906161053 33 74 6.4 14.5 0.00 0.00 0.00 33 1018.4
20260906160553 33 101 4.8 14.5 0.00 0.00 0.00 33 1018.3
20260906160053 33 146 8.0 16.1 0.00 0.00 0.00 33 1018.3
20260906155552 34 92 4.8 16.1 0.00 0.00 0.00 32 1018.2
20260906155052 33 103 4.8 12.9 0.00 0.00 0.00 32 1018.3
20260906154552 34 137 3.2 9.7 0.00 0.00 0.00 32 1018.3
20260906154052 34 157 3.2 9.7 0.00 0.00 0.00 34 1018.2
20260906153551 35 333 1.6 6.4 0.00 0.00 0.00 33 1018.2
20260906153051 34 355 1.6 9.7 0.00 0.00 0.00 34 1018.2
20260906152551 33 296 3.2 11.3 0.00 0.00 0.00 35 1018.1
20260906152050 33 257 4.8 12.9 0.00 0.00 0.00 34 1018.0
20260906151602 33 202 3.2 11.3 0.00 0.00 0.00 34 1018.0
20260906151049 33 196 6.4 11.3 0.00 0.00 0.00 35 1018.0
20260906150548 34 198 6.4 16.1 0.00 0.00 0.00 34 1018.0
20260906150054 35 258 9.7 16.1 0.00 0.00 0.00 33 1018.0
20260906145546 35 67 1.6 12.9 0.00 0.00 0.00 29 1017.9
20260906145046 34 355 3.2 11.3 0.00 0.00 0.00 32 1018.0
20260906144546 34 188 6.4 11.3 0.00 0.00 0.00 33 1017.9
20260906144045 34 207 0.0 11.3 0.00 0.00 0.00 33 1018.0
20260906143544 34 205 4.8 9.7 0.00 0.00 0.00 33 1017.9
20260906143056 35 292 4.8 9.7 0.00 0.00 0.00 31 1017.9
20260906142543 34 233 0.0 14.5 0.00 0.00 0.00 33 1017.9
20260906142042 35 240 6.4 14.5 0.00 0.00 0.00 32 1017.9
20260906141542 34 211 1.6 11.3 0.00 0.00 0.00 32 1017.9
20260906141041 35 175 4.8 14.5 0.00 0.00 0.00 30 1017.9
20260906140539 35 121 3.2 14.5 0.00 0.00 0.00 29 1017.8
20260906140047 35 85 1.6 19.3 0.00 0.00 0.00 30 1017.9
20260906135539 35 127 11.3 24.1 0.00 0.00 0.00 30 1017.9
20260906135040 35 70 8.0 27.4 0.00 0.00 0.00 29 1017.8
20260906134550 35 88 16.1 27.4 0.00 0.00 0.00 29 1017.9
20260906134037 35 142 3.2 19.3 0.00 0.00 0.00 29 1017.9
20260906133539 36 100 8.0 22.5 0.00 0.00 0.00 29 1018.0
20260906133034 36 69 12.9 25.7 0.00 0.00 0.00 29 1017.8
20260906132535 36 54 12.9 25.7 0.00 0.00 0.00 28 1017.8
20260906132032 36 42 9.7 22.5 0.00 0.00 0.00 29 1017.8
20260906131531 36 56 8.0 25.7 0.00 0.00 0.00 29 1017.8
20260906131030 36 92 16.1 27.4 0.00 0.00 0.00 29 1017.8
20260906130528 36 63 17.7 27.4 0.00 0.00 0.00 28 1017.9
20260906130030 36 51 14.5 27.4 0.00 0.00 0.00 28 1017.9
20260906125525 36 65 16.1 25.7 0.00 0.00 0.00 28 1018.0
20260906125028 36 119 8.0 25.7 0.00 0.00 0.00 28 1018.0
20260906124537 36 106 14.5 24.1 0.00 0.00 0.00 28 1018.1
20260906124022 36 47 4.8 25.7 0.00 0.00 0.00 27 1018.1
20260906123521 36 42 14.5 25.7 0.00 0.00 0.00 27 1018.1
20260906123041 36 53 14.5 27.4 0.00 0.00 0.00 26 1017.9
20260906122521 36 49 17.7 27.4 0.00 0.00 0.00 26 1018.1
20260906122022 36 94 16.1 25.7 0.00 0.00 0.00 27 1018.0
20260906121520 36 88 11.3 29.0 0.00 0.00 0.00 27 1017.9
20260906121018 36 105 17.7 29.0 0.00 0.00 0.00 27 1018.1
20260906120518 36 63 9.7 17.7 0.00 0.00 0.00 27 1018.2
20260906120017 36 109 3.2 22.5 0.00 0.00 0.00 27 1018.1
20260906115516 36 69 14.5 22.5 0.00 0.00 0.00 27 1018.3
20260906115015 36 71 9.7 25.7 0.00 0.00 0.00 27 1018.4
20260906114514 36 72 6.4 25.7 0.00 0.00 0.00 27 1018.4
20260906114014 36 62 11.3 22.5 0.00 0.00 0.00 27 1018.3
20260906113513 35 68 11.3 25.7 0.00 0.00 0.00 28 1018.3
20260906113015 35 119 6.4 17.7 0.00 0.00 0.00 27 1018.3
20260906112510 36 126 8.0 20.9 0.00 0.00 0.00 27 1018.3
20260906112009 36 57 14.5 20.9 0.00 0.00 0.00 27 1018.4
20260906111517 35 84 6.4 20.9 0.00 0.00 0.00 28 1018.3
20260906111006 36 348 9.7 20.9 0.00 0.00 0.00 28 1018.3
20260906110505 35 81 4.8 24.1 0.00 0.00 0.00 28 1018.2
20260906110004 35 74 11.3 24.1 0.00 0.00 0.00 28 1018.2
20260906105504 35 107 4.8 22.5 0.00 0.00 0.00 29 1018.2
20260906105003 35 91 14.5 24.1 0.00 0.00 0.00 28 1018.2
20260906104501 35 132 11.3 24.1 0.00 0.00 0.00 28 1018.2
20260906104100 35 105 8.0 19.3 0.00 0.00 0.00 28 1018.2
20260906103558 35 49 8.0 17.7 0.00 0.00 0.00 28 1018.2
20260906103058 35 97 12.9 17.7 0.00 0.00 0.00 28 1018.3
20260906102600 35 125 8.0 20.9 0.00 0.00 0.00 28 1018.3
20260906102056 35 64 4.8 27.4 0.00 0.00 0.00 28 1018.3
20260906101556 35 101 12.9 27.4 0.00 0.00 0.00 27 1018.4
20260906101054 35 128 4.8 25.7 0.00 0.00 0.00 29 1018.3
20260906100556 35 34 14.5 25.7 0.00 0.00 0.00 28 1018.3
20260906100053 35 112 12.9 22.5 0.00 0.00 0.00 28 1018.2
20260906095550 35 105 12.9 19.3 0.00 0.00 0.00 28 1018.3
20260906095048 34 97 1.6 8.0 0.00 0.00 0.00 29 1018.3
20260906094556 34 86 1.6 8.0 0.00 0.00 0.00 30 1018.3
20260906094045 33 171 3.2 11.3 0.00 0.00 0.00 30 1018.2
20260906093545 33 277 6.4 11.3 0.00 0.00 0.00 30 1018.3
20260906093047 33 204 3.2 11.3 0.00 0.00 0.00 31 1018.4
20260906092542 33 36 4.8 9.7 0.00 0.00 0.00 31 1018.4
20260906092041 33 275 4.8 12.9 0.00 0.00 0.00 31 1018.5
20260906091556 33 272 8.0 12.9 0.00 0.00 0.00 31 1018.5
20260906091042 33 253 3.2 8.0 0.00 0.00 0.00 30 1018.4
20260906090539 33 288 1.6 4.8 0.00 0.00 0.00 31 1018.5
20260906090037 33 267 1.6 8.0 0.00 0.00 0.00 31 1018.6
20260906085536 32 298 3.2 8.0 0.00 0.00 0.00 32 1018.7
20260906085034 32 344 4.8 11.3 0.00 0.00 0.00 32 1018.7
20260906084533 32 246 4.8 11.3 0.00 0.00 0.00 32 1018.8
20260906084031 32 322 1.6 11.3 0.00 0.00 0.00 32 1018.9
20260906083531 32 261 3.2 6.4 0.00 0.00 0.00 32 1018.8
20260906083034 32 248 3.2 6.4 0.00 0.00 0.00 32 1018.8
20260906082527 31 251 1.6 6.4 0.00 0.00 0.00 33 1018.8
20260906082027 31 233 3.2 8.0 0.00 0.00 0.00 33 1018.9
20260906081526 32 264 3.2 11.3 0.00 0.00 0.00 33 1018.9
20260906081025 31 267 3.2 11.3 0.00 0.00 0.00 33 1018.9
20260906080524 31 274 8.0 11.3 0.00 0.00 0.00 33 1019.0
20260906080030 31 250 8.0 11.3 0.00 0.00 0.00 33 1019.0
20260906075524 31 262 4.8 12.9 0.00 0.00 0.00 33 1019.0
20260906075021 31 189 3.2 12.9 0.00 0.00 0.00 34 1019.0
20260906074520 31 248 6.4 12.9 0.00 0.00 0.00 34 1018.9
20260906074019 30 267 6.4 12.9 0.00 0.00 0.00 34 1018.8
20260906073517 30 262 9.7 12.9 0.00 0.00 0.00 34 1018.8
20260906073018 30 238 6.4 11.3 0.00 0.00 0.00 35 1018.7
20260906072515 30 209 4.8 11.3 0.00 0.00 0.00 35 1018.7
20260906072012 30 255 6.4 11.3 0.00 0.00 0.00 36 1018.7
20260906071511 30 263 6.4 8.0 0.00 0.00 0.00 36 1018.6
20260906071013 29 257 4.8 9.7 0.00 0.00 0.00 36 1018.6
20260906070508 29 259 3.2 9.7 0.00 0.00 0.00 37 1018.6
20260906070008 29 244 3.2 6.4 0.00 0.00 0.00 37 1018.5
20260906065506 29 203 0.0 4.8 0.00 0.00 0.00 37 1018.5
20260906065004 28 265 1.6 4.8 0.00 0.00 0.00 38 1018.4
20260906064502 28 284 1.6 4.8 0.00 0.00 0.00 38 1018.4
20260906064000 28 326 1.6 4.8 0.00 0.00 0.00 38 1018.4
20260906063559 28 43 0.0 3.2 0.00 0.00 0.00 39 1018.3
20260906063101 28 315 0.0 3.2 0.00 0.00 0.00 39 1018.3
20260906062557 27 330 0.0 3.2 0.00 0.00 0.00 39 1018.2
20260906062055 27 20 0.0 4.8 0.00 0.00 0.00 40 1018.1
20260906061555 27 360 0.0 4.8 0.00 0.00 0.00 40 1018.1
20260906061053 26 5 0.0 4.8 0.00 0.00 0.00 40 1018.1
20260906060552 26 25 0.0 3.2 0.00 0.00 0.00 41 1018.0
20260906060051 26 38 0.0 6.4 0.00 0.00 0.00 42 1018.0
20260906055549 26 61 1.6 6.4 0.00 0.00 0.00 42 1018.0
20260906055048 25 44 1.6 6.4 0.00 0.00 0.00 45 1018.0
20260906054547 25 36 0.0 6.4 0.00 0.00 0.00 47 1017.9
20260906054046 24 19 1.6 6.4 0.00 0.00 0.00 48 1017.9
20260906053544 23 26 1.6 6.4 0.00 0.00 0.00 49 1017.9
20260906053058 23 5 3.2 8.0 0.00 0.00 0.00 50 1017.8
20260906052548 23 21 4.8 8.0 0.00 0.00 0.00 51 1017.9
20260906052041 23 32 4.8 8.0 0.00 0.00 0.00 51 1017.9
20260906051540 23 19 3.2 8.0 0.00 0.00 0.00 50 1018.0
20260906051037 23 74 3.2 9.7 0.00 0.00 0.00 50 1017.9
20260906050535 22 34 3.2 9.7 0.00 0.00 0.00 51 1018.0
20260906050046 22 36 3.2 9.7 0.00 0.00 0.00 51 1017.9
20260906045535 22 22 3.2 9.7 0.00 0.00 0.00 51 1017.9
20260906045032 22 47 3.2 8.0 0.00 0.00 0.00 51 1017.8
20260906044532 22 43 4.8 8.0 0.00 0.00 0.00 52 1017.9
20260906044032 22 104 0.0 9.7 0.00 0.00 0.00 51 1017.8
20260906043529 22 84 1.6 9.7 0.00 0.00 0.00 50 1017.8
20260906043031 22 55 1.6 8.0 0.00 0.00 0.00 50 1017.7
20260906042525 22 71 3.2 12.9 0.00 0.00 0.00 50 1017.6
20260906042024 22 48 3.2 16.1 0.00 0.00 0.00 50 1017.6
20260906041524 21 67 9.7 16.1 0.00 0.00 0.00 51 1017.6
20260906041024 21 47 9.7 14.5 0.00 0.00 0.00 51 1017.5
20260906040523 21 49 9.7 14.5 0.00 0.00 0.00 52 1017.5
20260906040023 20 59 8.0 14.5 0.00 0.00 0.00 52 1017.5
20260906035522 20 53 6.4 11.3 0.00 0.00 0.00 53 1017.5
20260906035022 20 38 6.4 12.9 0.00 0.00 0.00 53 1017.4
20260906034522 20 360 6.4 16.1 0.00 0.00 0.00 53 1017.5
20260906034020 21 14 4.8 16.1 0.00 0.00 0.00 52 1017.5
20260906033521 21 62 4.8 14.5 0.00 0.00 0.00 50 1017.4
20260906033024 21 89 9.7 14.5 0.00 0.00 0.00 51 1017.4
20260906032520 21 59 8.0 12.9 0.00 0.00 0.00 52 1017.4
20260906032021 21 9 4.8 12.9 0.00 0.00 0.00 51 1017.3
20260906031520 22 68 3.2 8.0 0.00 0.00 0.00 50 1017.3
20260906031019 21 86 4.8 8.0 0.00 0.00 0.00 50 1017.4
20260906030520 21 61 3.2 9.7 0.00 0.00 0.00 50 1017.3
20260906030022 21 50 6.4 12.9 0.00 0.00 0.00 51 1017.3
20260906025519 21 71 6.4 12.9 0.00 0.00 0.00 52 1017.3
20260906025019 21 65 3.2 11.3 0.00 0.00 0.00 52 1017.2
20260906024518 21 34 3.2 12.9 0.00 0.00 0.00 52 1017.1
20260906024018 21 59 4.8 9.7 0.00 0.00 0.00 52 1017.1
20260906023518 21 38 4.8 14.5 0.00 0.00 0.00 52 1017.1
20260906023017 21 59 6.4 14.5 0.00 0.00 0.00 52 1017.0
20260906022516 21 26 6.4 14.5 0.00 0.00 0.00 50 1017.0
20260906022015 22 88 6.4 14.5 0.00 0.00 0.00 49 1017.1
20260906021515 21 86 6.4 14.5 0.00 0.00 0.00 50 1017.1
20260906021020 21 28 3.2 14.5 0.00 0.00 0.00 50 1017.2
20260906020515 21 61 8.0 14.5 0.00 0.00 0.00 50 1017.1
20260906020015 21 55 6.4 14.5 0.00 0.00 0.00 50 1017.1
20260906015514 21 40 8.0 14.5 0.00 0.00 0.00 50 1017.1
20260906015014 21 53 4.8 14.5 0.00 0.00 0.00 52 1017.0
20260906014513 20 55 9.7 14.5 0.00 0.00 0.00 52 1017.2
20260906014013 21 24 6.4 8.0 0.00 0.00 0.00 52 1017.1
20260906013511 21 36 3.2 6.4 0.00 0.00 0.00 51 1017.0
20260906013011 22 30 4.8 9.7 0.00 0.00 0.00 50 1017.2
20260906012510 22 96 3.2 11.3 0.00 0.00 0.00 48 1017.1
20260906012010 22 94 6.4 11.3 0.00 0.00 0.00 49 1017.1
20260906011510 22 88 1.6 6.4 0.00 0.00 0.00 49 1017.3
20260906011010 22 88 0.0 8.0 0.00 0.00 0.00 48 1017.3
20260906010509 21 82 4.8 9.7 0.00 0.00 0.00 49 1017.2
20260906010008 21 62 6.4 9.7 0.00 0.00 0.00 50 1017.2
20260906005508 21 34 6.4 9.7 0.00 0.00 0.00 50 1017.3
20260906005008 21 35 6.4 14.5 0.00 0.00 0.00 50 1017.1
20260906004508 21 45 9.7 14.5 0.00 0.00 0.00 51 1017.2
20260906004007 21 35 9.7 14.5 0.00 0.00 0.00 50 1017.2
20260906003506 21 17 6.4 9.7 0.00 0.00 0.00 50 1017.0
20260906003005 21 49 4.8 12.9 0.00 0.00 0.00 49 1017.1
20260906002503 22 5 4.8 8.0 0.00 0.00 0.00 48 1017.1
20260906002003 22 51 4.8 8.0 0.00 0.00 0.00 47 1017.1
20260906001507 22 84 4.8 8.0 0.00 0.00 0.00 48 1017.1
20260906001002 22 10 3.2 11.3 0.00 0.00 0.00 48 1017.1
20260906000601 22 105 6.4 14.5 0.00 0.00 0.00 48 1017.0
20260906000105 22 46 9.7 14.5 0.00 0.00 0.00 49 1017.1
20260905235559 22 36 4.8 8.0 0.00 0.00 0.00 49 1017.1
20260905235059 22 69 4.8 9.7 0.00 0.00 0.00 48 1017.1
20260905234558 23 11 6.4 14.5 0.00 0.00 0.00 47 1017.2
20260905234057 23 32 6.4 12.9 0.00 0.00 0.00 45 1017.2
20260905233557 23 82 8.0 14.5 0.00 0.00 0.00 46 1017.3
20260905233057 22 66 8.0 14.5 0.00 0.00 0.00 46 1017.4
20260905232555 22 62 4.8 9.7 0.00 0.00 0.00 46 1017.4
20260905232055 22 46 4.8 9.7 0.00 0.00 0.00 47 1017.6
20260905231554 22 25 6.4 9.7 0.00 0.00 0.00 47 1017.6
20260905231054 23 91 4.8 9.7 0.00 0.00 0.00 46 1017.5
20260905230553 23 24 4.8 6.4 0.00 0.00 0.00 46 1017.6
20260905230054 23 56 3.2 11.3 0.00 0.00 0.00 46 1017.7
20260905225553 22 59 4.8 14.5 0.00 0.00 0.00 46 1017.7
20260905225052 22 30 8.0 14.5 0.00 0.00 0.00 46 1017.7
20260905224554 22 35 4.8 8.0 0.00 0.00 0.00 46 1017.7
20260905224050 22 26 3.2 6.4 0.00 0.00 0.00 47 1017.7
20260905223552 23 33 3.2 6.4 0.00 0.00 0.00 47 1017.7
20260905223050 23 20 3.2 6.4 0.00 0.00 0.00 47 1017.7
20260905222549 23 13 3.2 4.8 0.00 0.00 0.00 46 1017.8
20260905222048 23 90 0.0 3.2 0.00 0.00 0.00 45 1017.8
20260905221547 24 92 0.0 4.8 0.00 0.00 0.00 44 1017.7
20260905221047 24 91 0.0 6.4 0.00 0.00 0.00 43 1017.7
20260905220547 24 91 3.2 8.0 0.00 0.00 0.00 43 1017.6
20260905220047 24 70 4.8 8.0 0.00 0.00 0.00 43 1017.6
20260905215547 24 69 0.0 8.0 0.00 0.00 0.00 43 1017.6
20260905215046 23 50 3.2 8.0 0.00 0.00 0.00 43 1017.7
20260905214545 23 30 3.2 8.0 0.00 0.00 0.00 44 1017.7
20260905214045 23 24 6.4 16.1 0.00 0.00 0.00 45 1017.7
20260905213546 23 17 6.4 16.1 0.00 0.00 0.00 45 1017.8
20260905213043 23 13 4.8 6.4 0.00 0.00 0.00 44 1017.8
20260905212542 24 42 1.6 4.8 0.00 0.00 0.00 44 1017.8
20260905212040 25 46 1.6 6.4 0.00 0.00 0.00 43 1017.8
20260905211549 25 5 3.2 6.4 0.00 0.00 0.00 42 1017.8
20260905211038 25 105 1.6 9.7 0.00 0.00 0.00 41 1017.8
20260905210539 25 126 3.2 12.9 0.00 0.00 0.00 42 1017.9
20260905210039 25 321 1.6 11.3 0.00 0.00 0.00 42 1017.9
20260905205536 25 68 4.8 8.0 0.00 0.00 0.00 42 1018.0
20260905205036 25 61 4.8 14.5 0.00 0.00 0.00 42 1017.9
20260905204538 25 57 4.8 14.5 0.00 0.00 0.00 42 1018.0
20260905204036 25 51 3.2 4.8 0.00 0.00 0.00 42 1018.0
20260905203535 25 31 3.2 4.8 0.00 0.00 0.00 43 1017.9
20260905203036 25 336 1.6 4.8 0.00 0.00 0.00 42 1017.9
20260905202535 25 26 0.0 4.8 0.00 0.00 0.00 42 1017.9
20260905202035 25 27 0.0 8.0 0.00 0.00 0.00 41 1017.9
20260905201535 26 17 3.2 8.0 0.00 0.00 0.00 41 1017.9
20260905201035 26 61 3.2 6.4 0.00 0.00 0.00 40 1017.9
20260905200534 26 52 1.6 6.4 0.00 0.00 0.00 40 1017.9
20260905200039 26 360 0.0 4.8 0.00 0.00 0.00 40 1017.9
20260905195534 26 355 1.6 4.8 0.00 0.00 0.00 39 1018.0
20260905195034 26 355 1.6 4.8 0.00 0.00 0.00 40 1018.1
20260905194533 26 355 0.0 3.2 0.00 0.00 0.00 40 1018.0
20260905194033 26 355 0.0 6.4 0.00 0.00 0.00 40 1018.1
20260905193535 26 360 1.6 6.4 0.00 0.00 0.00 40 1018.1
20260905193031 26 28 0.0 6.4 0.00 0.00 0.00 40 1018.1
20260905192531 26 31 1.6 9.7 0.00 0.00 0.00 39 1018.1
20260905192030 27 11 4.8 11.3 0.00 0.00 0.00 39 1018.1
20260905191531 27 38 3.2 4.8 0.00 0.00 0.00 39 1018.1
20260905191031 27 117 1.6 4.8 0.00 0.00 0.00 38 1018.0
20260905190530 27 118 1.6 6.4 0.00 0.00 0.00 38 1018.0
20260905190030 27 121 1.6 9.7 0.00 0.00 0.00 38 1018.0
20260905185530 27 111 3.2 9.7 0.00 0.00 0.00 38 1018.0
20260905185030 27 164 1.6 8.0 0.00 0.00 0.00 39 1017.9
20260905184545 27 277 0.0 4.8 0.00 0.00 0.00 38 1017.9
20260905184029 27 269 3.2 4.8 0.00 0.00 0.00 38 1018.0
20260905183532 27 302 1.6 4.8 0.00 0.00 0.00 38 1017.9
20260905183041 27 300 0.0 4.8 0.00 0.00 0.00 38 1017.8
20260905182533 27 65 0.0 14.5 0.00 0.00 0.00 38 1017.7
20260905182029 27 82 4.8 14.5 0.00 0.00 0.00 38 1017.7
20260905181532 27 71 4.8 16.1 0.00 0.00 0.00 38 1017.7
20260905181028 27 73 8.0 16.1 0.00 0.00 0.00 38 1017.6
20260905180528 28 67 4.8 12.9 0.00 0.00 0.00 38 1017.5
20260905180034 28 76 6.4 14.5 0.00 0.00 0.00 38 1017.6
20260905175528 27 103 8.0 14.5 0.00 0.00 0.00 38 1017.6
20260905175027 28 86 9.7 16.1 0.00 0.00 0.00 38 1017.6
20260905174527 28 76 4.8 16.1 0.00 0.00 0.00 38 1017.5
20260905174027 28 76 8.0 20.9 0.00 0.00 0.00 38 1017.5
20260905173527 28 82 6.4 17.7 0.00 0.00 0.00 38 1017.4
20260905173028 28 71 8.0 22.5 0.00 0.00 0.00 38 1017.4
20260905172527 28 53 9.7 22.5 0.00 0.00 0.00 37 1017.4
20260905172028 28 113 11.3 22.5 0.00 0.00 0.00 37 1017.4
20260905171526 28 108 11.3 20.9 0.00 0.00 0.00 37 1017.2
20260905171029 28 66 12.9 20.9 0.00 0.00 0.00 37 1017.2
20260905170526 28 69 9.7 20.9 0.00 0.00 0.00 37 1017.2
20260905170026 29 98 12.9 24.1 0.00 0.00 0.00 37 1017.2